Dublin, VA

8:58 AM EDT on July 23, 2017 (GMT -0400)
New River Valley

Weather History for KPSK - November, 2011

Change the Weather History Date:

Wednesday, November 23, 2011

  Actual Average (KBCB) Record (KBCB)
Temperature  
Mean Temperature 50 °F -  
Max Temperature 57 °F 51 °F 68 °F (2003)
Min Temperature 44 °F 27 °F 10 °F (1971)
Degree Days  
Heating Degree Days 14    
Moisture  
Dew Point 37 °F    
Average Humidity 70    
Maximum Humidity 94    
Minimum Humidity 61    
Precipitation  
Precipitation 0.00 in - - ()
Sea Level Pressure  
Sea Level Pressure 30.06 in    
Wind  
Wind Speed 13 mph (NW)    
Max Wind Speed 26 mph    
Max Gust Speed 38 mph    
Visibility 10 miles    
Events      
Averages and records for this station are not official NWS values.
T = Trace of Precipitation, MM = Missing Value Source: NWS Daily Summary

Daily Weather History Graph

Daily Weather History Graph

Search for Another Location

Airport or City:

Trip Planner

Search our weather history database for the weather conditions in past years. The results will help you decide how hot, cold, wet, or windy it might be!

Date:

Astronomy

Nov. 23, 2011 Rise Set
Actual Time 7:09 AM EST 5:08 PM EST
Civil Twilight 6:41 AM EST 5:36 PM EST
Nautical Twilight 6:09 AM EST 6:08 PM EST
Astronomical Twilight 5:38 AM EST 6:39 PM EST
Moon 5:13 AM EST 3:48 PM EST
Length of Visible Light 10h 55m
Length of Day
9h 58m
Waning Crescent, 4% of the Moon is Illuminated
Nov 23
Waning Crescent
Nov 25
New
Dec 2
First Quarter
Dec 10
Full
Dec 17
Last Quarter

Hourly Weather History & Observations

Time (EST) Temp. Windchill Dew Point Humidity Pressure Visibility Wind Dir Wind Speed Gust Speed Precip Events Conditions
4:15 AM 57.2 °F - 55.4 °F 94% 29.78 in 10.0 mi SW 10.4 mph - N/A   Scattered Clouds
9:35 AM 50.0 °F - 42.8 °F 76% 29.91 in 10.0 mi WNW 26.5 mph 38.0 mph N/A   Overcast
9:55 AM 50.0 °F - 41.0 °F 71% 29.91 in 10.0 mi WNW 18.4 mph 31.1 mph N/A   Mostly Cloudy
10:15 AM 48.2 °F - 42.8 °F 82% 29.92 in 10.0 mi WNW 15.0 mph 24.2 mph N/A   Overcast
10:35 AM 48.2 °F - 41.0 °F 76% 29.93 in - WNW 17.3 mph 26.5 mph N/A   Unknown
10:55 AM 48.2 °F - 41.0 °F 76% 29.93 in 10.0 mi West 15.0 mph 26.5 mph N/A   Overcast
11:15 AM 48.2 °F - 41.0 °F 76% 29.94 in 10.0 mi WNW 19.6 mph 29.9 mph N/A   Overcast
11:35 AM 48.2 °F - 39.2 °F 71% 29.94 in 10.0 mi WNW 19.6 mph 27.6 mph N/A   Overcast
11:55 AM 46.4 °F 39.5 °F 39.2 °F 76% 29.94 in 10.0 mi NW 17.3 mph 27.6 mph N/A   Overcast
12:35 PM 46.4 °F 39.8 °F 37.4 °F 71% 29.96 in 10.0 mi NW 16.1 mph 23.0 mph N/A   Overcast
12:55 PM 46.4 °F 41.1 °F 39.2 °F 76% 29.96 in 10.0 mi NW 11.5 mph 23.0 mph N/A   Overcast
1:15 PM 46.4 °F 40.1 °F 37.4 °F 71% 29.97 in 10.0 mi NW 15.0 mph 28.8 mph N/A   Overcast
1:35 PM 46.4 °F 41.1 °F 39.2 °F 76% 29.98 in 10.0 mi NW 11.5 mph 28.8 mph N/A   Overcast
1:55 PM 46.4 °F 40.4 °F 39.2 °F 76% 29.99 in 10.0 mi NW 13.8 mph 28.8 mph N/A   Overcast
2:15 PM 46.4 °F 40.7 °F 39.2 °F 76% 30.00 in 10.0 mi NW 12.7 mph 21.9 mph N/A   Overcast
2:35 PM 46.4 °F 40.7 °F 39.2 °F 76% 30.02 in 10.0 mi NW 12.7 mph 19.6 mph N/A   Overcast
2:55 PM 46.4 °F 39.8 °F 37.4 °F 71% 30.03 in 10.0 mi WNW 16.1 mph 28.8 mph N/A   Overcast
3:15 PM 46.4 °F 42.9 °F 35.6 °F 66% 30.04 in 10.0 mi WNW 6.9 mph 23.0 mph N/A   Overcast
3:35 PM 46.4 °F 42.4 °F 35.6 °F 66% 30.05 in 10.0 mi NNW 8.1 mph 26.5 mph N/A   Mostly Cloudy
3:55 PM 46.4 °F 40.4 °F 35.6 °F 66% 30.05 in 10.0 mi NW 13.8 mph 21.9 mph N/A   Mostly Cloudy
4:15 PM 46.4 °F 40.7 °F 35.6 °F 66% 30.05 in 10.0 mi NW 12.7 mph 24.2 mph N/A   Mostly Cloudy
4:35 PM 46.4 °F 41.5 °F 35.6 °F 66% 30.07 in 10.0 mi NNW 10.4 mph 18.4 mph N/A   Scattered Clouds
4:55 PM 46.4 °F 42.9 °F 35.6 °F 66% 30.07 in 10.0 mi NW 6.9 mph 17.3 mph N/A   Mostly Cloudy
5:15 PM 46.4 °F 41.9 °F 35.6 °F 66% 30.08 in 10.0 mi NW 9.2 mph 21.9 mph N/A   Mostly Cloudy
5:35 PM 46.4 °F 41.1 °F 35.6 °F 66% 30.09 in 10.0 mi NW 11.5 mph 21.9 mph N/A   Mostly Cloudy
5:55 PM 46.4 °F 39.2 °F 35.6 °F 66% 30.10 in 10.0 mi NNW 18.4 mph 23.0 mph N/A   Scattered Clouds
6:15 PM 46.4 °F 42.4 °F 35.6 °F 66% 30.11 in 10.0 mi NNW 8.1 mph 20.7 mph N/A   Scattered Clouds
6:35 PM 46.4 °F 41.5 °F 35.6 °F 66% 30.12 in 10.0 mi NW 10.4 mph 20.7 mph N/A   Scattered Clouds
6:55 PM 46.4 °F 41.9 °F 35.6 °F 66% 30.12 in 10.0 mi NNW 9.2 mph 18.4 mph N/A   Scattered Clouds
7:55 PM 44.6 °F 42.2 °F 35.6 °F 71% 30.16 in 10.0 mi NNW 4.6 mph 19.6 mph N/A   Clear
8:15 PM 44.6 °F 41.4 °F 35.6 °F 71% 30.17 in 10.0 mi NNW 5.8 mph - N/A   Clear
8:35 PM 44.6 °F 41.4 °F 35.6 °F 71% 30.17 in 10.0 mi NNW 5.8 mph - N/A   Clear
8:55 PM 44.6 °F 40.2 °F 35.6 °F 71% 30.18 in 10.0 mi WNW 8.1 mph - N/A   Clear
9:35 PM 44.6 °F - 33.8 °F 66% 30.19 in 10.0 mi Calm Calm - N/A   Scattered Clouds
9:55 PM 44.6 °F 42.2 °F 33.8 °F 66% 30.20 in 10.0 mi NNW 4.6 mph - N/A   Clear
10:15 PM 44.6 °F 42.2 °F 33.8 °F 66% 30.20 in 10.0 mi North 4.6 mph - N/A   Clear
10:35 PM 44.6 °F 41.4 °F 33.8 °F 66% 30.21 in 10.0 mi North 5.8 mph - N/A   Clear
10:55 PM 44.6 °F 43.1 °F 33.8 °F 66% 30.21 in 10.0 mi NNE 3.5 mph - N/A   Clear
11:15 PM 44.6 °F 38.8 °F 32.0 °F 61% 30.21 in 10.0 mi NNW 11.5 mph 19.6 mph N/A   Clear
11:35 PM 44.6 °F 37.8 °F 32.0 °F 61% 30.22 in 10.0 mi WNW 15.0 mph 20.7 mph N/A   Clear
11:55 PM 44.6 °F 39.7 °F 32.0 °F 61% 30.22 in 10.0 mi NW 9.2 mph 17.3 mph N/A   Clear